Airfield :
LOGIN :

Register | Disclaimer

   EN    FR    IT 

 










Legend :    VFR   Marginal VFR   IFR   Intensive IFR   Very Intensive IFR
Visi :
Ceiling :
>= 8 km
>= 3000ft
5 to 8 km
1000 to 3000 ft
1500m to 5 km
500 to 1000 ft
800 to 1500m
200 to 500 ft
< 800m
< 200 ft
Symbols :   Thunderstorms  Fog  Heavy snow  Heavy precipitations  Wind > 20 kt
SIGMETs :     Misc.  Thunderstorms  Icing  Turbulence  Mountain Waves  Volcanic Ashes






- Airport Elevation : 2731 ft
- IATA code : LPY


LFHP - Le Puy Loudes

CURRENT METAR :
  • 021630Z AUTO 30008KT 270V330 CAVOK 13/M02 Q1011

EXPIRED METARs :
  • 021600Z AUTO 30009KT 250V330 CAVOK 13/M03 Q1011
  • 021530Z AUTO 28010KT 240V320 CAVOK 13/M05 Q1011
  • 021500Z AUTO 29009KT 240V330 CAVOK 13/M05 Q1011
  • 021430Z AUTO 31009KT 270V340 CAVOK 13/M04 Q1011
  • 021400Z AUTO 28008KT 220V340 CAVOK 13/M02 Q1011

Expired Forecast.



MET'MAP, your aeronautical weather chart ! - Copyright ORBIFLY December 2007 - Disclaimer

ORBIFLY MET'MAP TEAM :

Programming & Development : Alexandra Zaïnal
Concept & original design : Baudouin d'Aumeries
Assistance for programming : Marc-Olivier Méhu
Technical & hardware support : Manuel Goepfert

Contact : metmap@orbifly.com




SOURCES & CREDITS :

   NOAA